,,,PA_Meas_PMT16A,,PR_Meas_QMR101_102,,RH_Meas_QMH101,,SR_Meas_QMS101,,TA_Meas_QMH101,,GenWind,,GenWind,
date,time,status,PA,status,PR,status,RH,status,SR,status,TA,status,DirAvg,status,SpdAvg,
2010-06-07, 00:00:05,VALID,1009.81,VALID,0,VALID,102.803,VALID,0.105969,VALID,24.2183,VALID,41,VALID,0.484766,
2010-06-07, 00:01:05,VALID,1009.85,VALID,0,VALID,102.78,VALID,0.105969,VALID,24.2183,VALID,41,VALID,0.457031,
2010-06-07, 00:02:05,VALID,1009.87,VALID,0,VALID,102.795,VALID,0.105969,VALID,24.2183,VALID,41,VALID,0.26875,
2010-06-07, 00:03:05,VALID,1009.86,VALID,0,VALID,102.795,VALID,0,VALID,24.2202,VALID,70,VALID,0.536719,
2010-06-07, 00:04:05,VALID,1009.86,VALID,0,VALID,102.795,VALID,0,VALID,24.1988,VALID,110,VALID,0.505859,
2010-06-07, 00:05:05,VALID,1009.88,VALID,0,VALID,102.765,VALID,0,VALID,24.2591,VALID,103,VALID,0.733203,
2010-06-07, 00:06:05,VALID,1009.88,VALID,0,VALID,102.742,VALID,0,VALID,24.2786,VALID,102,VALID,0.675781,
2010-06-07, 00:07:04,VALID,1009.88,VALID,0,VALID,102.749,VALID,0,VALID,24.2768,VALID,103,VALID,0.560547,
2010-06-07, 00:08:04,VALID,1009.87,VALID,0,VALID,102.78,VALID,0,VALID,24.2786,VALID,101,VALID,0.924219,
2010-06-07, 00:09:04,VALID,1009.9,VALID,0,VALID,102.78,VALID,0,VALID,24.2786,VALID,59,VALID,0.710156,
2010-06-07, 00:10:04,VALID,1009.93,VALID,0,VALID,102.788,VALID,0,VALID,24.2786,VALID,71,VALID,0.478516,
2010-06-07, 00:11:04,VALID,1009.93,VALID,0,VALID,102.795,VALID,0,VALID,24.2591,VALID,58,VALID,0.510938,
2010-06-07, 00:12:04,VALID,1009.95,VALID,0,VALID,102.795,VALID,0,VALID,24.2396,VALID,57,VALID,0.407031,
2010-06-07, 00:13:04,VALID,1009.94,VALID,0,VALID,102.818,VALID,0,VALID,24.2396,VALID,57,VALID,0.0566406,
2010-06-07, 00:14:04,VALID,1009.94,VALID,0,VALID,102.818,VALID,0,VALID,24.2396,VALID,57,VALID,0.29375,
2010-06-07, 00:15:04,VALID,1009.92,VALID,0,VALID,102.795,VALID,0,VALID,24.2396,VALID,57,VALID,0.046875,
2010-06-07, 00:16:04,VALID,1009.92,VALID,0,VALID,102.795,VALID,0,VALID,24.2202,VALID,57,VALID,0.00078125,
2010-06-07, 00:17:04,VALID,1009.91,VALID,0,VALID,102.788,VALID,0,VALID,24.2202,VALID,57,VALID,0.151953,
2010-06-07, 00:18:04,VALID,1009.93,VALID,0,VALID,102.826,VALID,0,VALID,24.2202,VALID,66,VALID,0.419141,
2010-06-07, 00:19:04,VALID,1009.94,VALID,0,VALID,102.803,VALID,0,VALID,24.2202,VALID,66,VALID,0.4625,
2010-06-07, 00:20:04,VALID,1009.93,VALID,0,VALID,102.795,VALID,0,VALID,24.2007,VALID,66,VALID,0.4125,
2010-06-07, 00:21:04,VALID,1009.94,VALID,0,VALID,102.81,VALID,0,VALID,24.2007,VALID,66,VALID,0.29375,
2010-06-07, 00:22:04,VALID,1009.94,VALID,0,VALID,102.788,VALID,0,VALID,24.1812,VALID,66,VALID,0,
2010-06-07, 00:23:04,VALID,1009.91,VALID,0,VALID,102.788,VALID,0,VALID,24.2007,VALID,66,VALID,0,
2010-06-07, 00:24:04,VALID,1009.9,VALID,0,VALID,102.803,VALID,0,VALID,24.1812,VALID,66,VALID,0,
2010-06-07, 00:25:04,VALID,1009.88,VALID,0,VALID,102.78,VALID,0,VALID,24.1812,VALID,83,VALID,0,
2010-06-07, 00:26:04,VALID,1009.84,VALID,0,VALID,102.772,VALID,0,VALID,24.1793,VALID,83,VALID,0.551172,
2010-06-07, 00:27:04,VALID,1009.8,VALID,0,VALID,102.765,VALID,0,VALID,24.2007,VALID,91,VALID,0.839844,
2010-06-07, 00:28:04,VALID,1009.78,VALID,0,VALID,102.757,VALID,0,VALID,24.2202,VALID,92,VALID,0.488672,
2010-06-07, 00:29:04,VALID,1009.75,VALID,0,VALID,102.788,VALID,0,VALID,24.1988,VALID,113,VALID,0.475391,
2010-06-07, 00:30:04,VALID,1009.75,VALID,0,VALID,102.795,VALID,0,VALID,24.2007,VALID,103,VALID,1.07695,
2010-06-07, 00:31:04,VALID,1009.71,VALID,0,VALID,102.803,VALID,0,VALID,24.2007,VALID,106,VALID,1.06914,
2010-06-07, 00:32:04,VALID,1009.69,VALID,0,VALID,102.803,VALID,0,VALID,24.1812,VALID,115,VALID,0.882031,
2010-06-07, 00:33:04,VALID,1009.63,VALID,0,VALID,102.795,VALID,0,VALID,24.1812,VALID,113,VALID,0.647656,
2010-06-07, 00:34:04,VALID,1009.63,VALID,0,VALID,102.765,VALID,0,VALID,24.1812,VALID,110,VALID,0.714453,
2010-06-07, 00:35:04,VALID,1009.59,VALID,0,VALID,102.81,VALID,0.105969,VALID,24.1617,VALID,121,VALID,0.428516,
2010-06-07, 00:36:04,VALID,1009.55,VALID,0,VALID,102.795,VALID,0,VALID,24.1617,VALID,121,VALID,0.207813,
2010-06-07, 00:37:04,VALID,1009.52,VALID,0,VALID,102.803,VALID,0,VALID,24.1617,VALID,121,VALID,0.0859375,
2010-06-07, 00:38:04,VALID,1009.49,VALID,0,VALID,102.803,VALID,0,VALID,24.1404,VALID,101,VALID,0.522656,
2010-06-07, 00:39:04,VALID,1009.48,VALID,0,VALID,102.803,VALID,0,VALID,24.1617,VALID,101,VALID,0.523828,
2010-06-07, 00:40:04,VALID,1009.47,VALID,0,VALID,102.788,VALID,0,VALID,24.1422,VALID,101,VALID,0.334766,
2010-06-07, 00:41:04,VALID,1009.44,VALID,0,VALID,102.81,VALID,0,VALID,24.1635,VALID,101,VALID,0.161328,
2010-06-07, 00:42:04,VALID,1009.43,VALID,0,VALID,102.772,VALID,0,VALID,24.1422,VALID,101,VALID,0.0753906,
2010-06-07, 00:43:04,VALID,1009.42,VALID,0,VALID,102.795,VALID,0,VALID,24.1422,VALID,101,VALID,0.333594,
2010-06-07, 00:44:04,VALID,1009.4,VALID,0,VALID,102.788,VALID,0,VALID,24.1617,VALID,101,VALID,0.304688,
2010-06-07, 00:45:04,VALID,1009.37,VALID,0,VALID,102.803,VALID,0,VALID,24.1617,VALID,101,VALID,0.310156,
2010-06-07, 00:46:04,VALID,1009.36,VALID,0,VALID,102.788,VALID,0,VALID,24.1422,VALID,101,VALID,0.204297,
2010-06-07, 00:47:04,VALID,1009.34,VALID,0,VALID,102.78,VALID,0,VALID,24.1617,VALID,101,VALID,0,
2010-06-07, 00:48:04,VALID,1009.31,VALID,0,VALID,102.757,VALID,0.105969,VALID,24.1599,VALID,101,VALID,0.0910156,
2010-06-07, 00:49:04,VALID,1009.31,VALID,0,VALID,102.749,VALID,0.105969,VALID,24.1793,VALID,101,VALID,0,
2010-06-07, 00:50:04,VALID,1009.33,VALID,0,VALID,102.757,VALID,0.105969,VALID,24.1793,VALID,101,VALID,0,
2010-06-07, 00:51:04,VALID,1009.31,VALID,0,VALID,102.749,VALID,0,VALID,24.1599,VALID,101,VALID,0,
2010-06-07, 00:52:04,VALID,1009.32,VALID,0,VALID,102.757,VALID,0,VALID,24.1793,VALID,101,VALID,0,
2010-06-07, 00:53:04,VALID,1009.32,VALID,0,VALID,102.765,VALID,0.105969,VALID,24.1599,VALID,101,VALID,0.146094,
2010-06-07, 00:54:04,VALID,1009.33,VALID,0,VALID,102.772,VALID,0,VALID,24.1617,VALID,101,VALID,0.0675781,
2010-06-07, 00:55:04,VALID,1009.35,VALID,0,VALID,102.788,VALID,0.105969,VALID,24.1404,VALID,101,VALID,0.357812,
2010-06-07, 00:56:04,VALID,1009.34,VALID,0,VALID,102.772,VALID,0,VALID,24.1617,VALID,101,VALID,0.417969,
2010-06-07, 00:57:04,VALID,1009.31,VALID,0,VALID,102.788,VALID,0,VALID,24.1209,VALID,101,VALID,0.389453,
2010-06-07, 00:58:04,VALID,1009.35,VALID,0,VALID,102.765,VALID,0.105969,VALID,24.1209,VALID,101,VALID,0.532031,
2010-06-07, 00:59:04,VALID,1009.35,VALID,0,VALID,102.749,VALID,0.105969,VALID,24.1404,VALID,101,VALID,0.4375,
2010-06-07, 01:00:04,VALID,1009.32,VALID,0,VALID,102.742,VALID,0,VALID,24.1599,VALID,121,VALID,0.742578,
2010-06-07, 01:01:04,VALID,1009.31,VALID,0,VALID,102.757,VALID,0,VALID,24.1404,VALID,124,VALID,0.695703,
2010-06-07, 01:02:04,VALID,1009.32,VALID,0,VALID,102.734,VALID,0,VALID,24.1617,VALID,142,VALID,0.624609,
2010-06-07, 01:03:04,VALID,1009.27,VALID,0,VALID,102.749,VALID,0,VALID,24.1617,VALID,142,VALID,0.8,
2010-06-07, 01:04:04,VALID,1009.24,VALID,0,VALID,102.727,VALID,0,VALID,24.1617,VALID,137,VALID,0.647656,
2010-06-07, 01:05:04,VALID,1009.25,VALID,0,VALID,102.711,VALID,0,VALID,24.1812,VALID,137,VALID,0.963281,
2010-06-07, 01:06:04,VALID,1009.24,VALID,0,VALID,102.719,VALID,0,VALID,24.183,VALID,136,VALID,0.4625,
2010-06-07, 01:07:04,VALID,1009.22,VALID,0,VALID,102.704,VALID,0,VALID,24.2007,VALID,136,VALID,0.547266,
2010-06-07, 01:08:04,VALID,1009.23,VALID,0,VALID,102.688,VALID,0,VALID,24.2007,VALID,136,VALID,0.560547,
2010-06-07, 01:09:04,VALID,1009.22,VALID,0,VALID,102.719,VALID,0,VALID,24.2007,VALID,136,VALID,0.722656,
2010-06-07, 01:10:04,VALID,1009.22,VALID,0,VALID,102.704,VALID,0,VALID,24.222,VALID,136,VALID,0.548828,
2010-06-07, 01:11:04,VALID,1009.24,VALID,0,VALID,102.696,VALID,0,VALID,24.2007,VALID,136,VALID,0.432813,
2010-06-07, 01:12:04,VALID,1009.26,VALID,0,VALID,102.704,VALID,0,VALID,24.1812,VALID,136,VALID,0.611719,
2010-06-07, 01:13:04,VALID,1009.25,VALID,0,VALID,102.711,VALID,0,VALID,24.1617,VALID,144,VALID,0.500391,
2010-06-07, 01:14:04,VALID,1009.24,VALID,0,VALID,102.734,VALID,0,VALID,24.1635,VALID,139,VALID,0.990625,
2010-06-07, 01:15:04,VALID,1009.25,VALID,0,VALID,102.727,VALID,0,VALID,24.1422,VALID,131,VALID,0.693359,
2010-06-07, 01:16:04,VALID,1009.22,VALID,0,VALID,102.704,VALID,0,VALID,24.144,VALID,136,VALID,0.641797,
2010-06-07, 01:17:04,VALID,1009.21,VALID,0,VALID,102.727,VALID,0,VALID,24.144,VALID,135,VALID,0.728906,
2010-06-07, 01:18:04,VALID,1009.17,VALID,0,VALID,102.727,VALID,0,VALID,24.1227,VALID,135,VALID,0.50625,
2010-06-07, 01:19:04,VALID,1009.18,VALID,0,VALID,102.704,VALID,0,VALID,24.1227,VALID,135,VALID,0.664453,
2010-06-07, 01:20:04,VALID,1009.13,VALID,0,VALID,102.719,VALID,0,VALID,24.1032,VALID,135,VALID,0.339453,
2010-06-07, 01:21:04,VALID,1009.13,VALID,0,VALID,102.688,VALID,0,VALID,24.1227,VALID,135,VALID,0.0792969,
2010-06-07, 01:22:04,VALID,1009.1,VALID,0,VALID,102.673,VALID,0,VALID,24.1032,VALID,135,VALID,0.256641,
2010-06-07, 01:23:04,VALID,1009.08,VALID,0,VALID,102.711,VALID,0,VALID,24.1051,VALID,135,VALID,0.228516,
2010-06-07, 01:24:04,VALID,1009.09,VALID,0,VALID,102.719,VALID,0,VALID,24.1032,VALID,135,VALID,0.0359375,
2010-06-07, 01:25:04,VALID,1009.07,VALID,0,VALID,102.711,VALID,0,VALID,24.1051,VALID,135,VALID,0,
2010-06-07, 01:26:04,VALID,1009.09,VALID,0,VALID,102.719,VALID,0,VALID,24.0837,VALID,133,VALID,0.307813,
2010-06-07, 01:27:04,VALID,1009.06,VALID,0,VALID,102.711,VALID,0,VALID,24.0837,VALID,122,VALID,0.698828,
2010-06-07, 01:28:04,VALID,1009.07,VALID,0,VALID,102.688,VALID,0,VALID,24.0837,VALID,92,VALID,0.585547,
2010-06-07, 01:29:04,VALID,1009.06,VALID,0,VALID,102.696,VALID,0,VALID,24.0837,VALID,92,VALID,0.778516,
2010-06-07, 01:30:04,VALID,1009.05,VALID,0,VALID,102.688,VALID,0,VALID,24.1032,VALID,92,VALID,0.578516,
2010-06-07, 01:31:04,VALID,1009.04,VALID,0,VALID,102.704,VALID,0,VALID,24.1245,VALID,93,VALID,0.576953,
2010-06-07, 01:32:04,VALID,1009.04,VALID,0,VALID,102.711,VALID,0,VALID,24.1051,VALID,95,VALID,0.713281,
2010-06-07, 01:33:04,VALID,1009.04,VALID,0,VALID,102.696,VALID,0.105969,VALID,24.1209,VALID,91,VALID,0.717578,
2010-06-07, 01:34:04,VALID,1009.02,VALID,0,VALID,102.688,VALID,0,VALID,24.1014,VALID,91,VALID,0.280859,
2010-06-07, 01:35:04,VALID,1009.05,VALID,0,VALID,102.681,VALID,0,VALID,24.1422,VALID,92,VALID,0.341797,
2010-06-07, 01:36:04,VALID,1009.03,VALID,0,VALID,102.696,VALID,0,VALID,24.1209,VALID,108,VALID,0.437891,
2010-06-07, 01:37:04,VALID,1009.01,VALID,0,VALID,102.688,VALID,0.105969,VALID,24.1227,VALID,109,VALID,0.407813,
2010-06-07, 01:38:04,VALID,1008.98,VALID,0,VALID,102.711,VALID,0.105969,VALID,24.1014,VALID,127,VALID,0.737109,
2010-06-07, 01:39:04,VALID,1008.98,VALID,0,VALID,102.727,VALID,0.105969,VALID,24.0819,VALID,134,VALID,0.760938,
2010-06-07, 01:40:04,VALID,1008.97,VALID,0,VALID,102.711,VALID,0,VALID,24.1032,VALID,135,VALID,0.853516,
2010-06-07, 01:41:04,VALID,1008.94,VALID,0,VALID,102.727,VALID,0,VALID,24.0624,VALID,144,VALID,0.765625,
2010-06-07, 01:42:04,VALID,1008.96,VALID,0,VALID,102.734,VALID,0.105969,VALID,24.0624,VALID,144,VALID,0.947656,
2010-06-07, 01:43:04,VALID,1008.95,VALID,0,VALID,102.734,VALID,0.105969,VALID,24.0819,VALID,100,VALID,0.669141,
2010-06-07, 01:44:04,VALID,1008.99,VALID,0,VALID,102.711,VALID,0,VALID,24.0837,VALID,130,VALID,0.278125,
2010-06-07, 01:45:04,VALID,1008.97,VALID,0,VALID,102.704,VALID,0.105969,VALID,24.0624,VALID,130,VALID,0.0175781,
2010-06-07, 01:46:04,VALID,1008.95,VALID,0,VALID,102.696,VALID,0.105969,VALID,24.0624,VALID,130,VALID,0.146484,
2010-06-07, 01:47:04,VALID,1008.94,VALID,0,VALID,102.711,VALID,0.105969,VALID,24.0819,VALID,130,VALID,0,
2010-06-07, 01:48:04,VALID,1008.93,VALID,0,VALID,102.719,VALID,0.105969,VALID,24.0624,VALID,130,VALID,0,
2010-06-07, 01:49:04,VALID,1008.89,VALID,0,VALID,102.704,VALID,0.105969,VALID,24.1032,VALID,130,VALID,0.224609,
2010-06-07, 01:50:04,VALID,1008.88,VALID,0,VALID,102.711,VALID,0,VALID,24.0819,VALID,130,VALID,0.355859,
2010-06-07, 01:51:04,VALID,1008.85,VALID,0,VALID,102.719,VALID,0.105969,VALID,24.1032,VALID,106,VALID,0.423438,
2010-06-07, 01:52:04,VALID,1008.88,VALID,0,VALID,102.704,VALID,0.105969,VALID,24.0819,VALID,90,VALID,0.603125,
2010-06-07, 01:53:04,VALID,1008.87,VALID,0,VALID,102.727,VALID,0.105969,VALID,24.0819,VALID,66,VALID,0.400391,
2010-06-07, 01:54:04,VALID,1008.84,VALID,0,VALID,102.727,VALID,0.105969,VALID,24.0819,VALID,66,VALID,0.286719,
2010-06-07, 01:55:04,VALID,1008.86,VALID,0,VALID,102.704,VALID,0.105969,VALID,24.1014,VALID,66,VALID,0.198828,
2010-06-07, 01:56:04,VALID,1008.86,VALID,0,VALID,102.742,VALID,0.105969,VALID,24.1014,VALID,108,VALID,0.550781,
2010-06-07, 01:57:04,VALID,1008.84,VALID,0,VALID,102.727,VALID,0.105969,VALID,24.1014,VALID,91,VALID,0.604297,
2010-06-07, 01:58:04,VALID,1008.87,VALID,0,VALID,102.719,VALID,0.105969,VALID,24.1014,VALID,111,VALID,0.542188,
2010-06-07, 01:59:04,VALID,1008.84,VALID,0,VALID,102.719,VALID,0,VALID,24.1422,VALID,113,VALID,0.486328,
2010-06-07, 02:00:04,VALID,1008.86,VALID,0,VALID,102.704,VALID,0.105969,VALID,24.1209,VALID,117,VALID,0.623047,
2010-06-07, 02:01:04,VALID,1008.87,VALID,0,VALID,102.734,VALID,0.105969,VALID,24.1209,VALID,128,VALID,0.411328,
2010-06-07, 02:02:04,VALID,1008.85,VALID,0,VALID,102.765,VALID,0.105969,VALID,24.1209,VALID,154,VALID,0.798047,
2010-06-07, 02:03:04,VALID,1008.83,VALID,0,VALID,102.803,VALID,0,VALID,24.1032,VALID,155,VALID,0.874219,
2010-06-07, 02:04:04,VALID,1008.82,VALID,0,VALID,102.803,VALID,0,VALID,24.0837,VALID,146,VALID,0.530859,
2010-06-07, 02:05:04,VALID,1008.82,VALID,0,VALID,102.795,VALID,0,VALID,24.0837,VALID,152,VALID,0.512109,
2010-06-07, 02:06:04,VALID,1008.85,VALID,0,VALID,102.81,VALID,0,VALID,24.0624,VALID,155,VALID,0.671094,
2010-06-07, 02:07:04,VALID,1008.85,VALID,0,VALID,102.803,VALID,0,VALID,24.0837,VALID,155,VALID,0.489062,
2010-06-07, 02:08:04,VALID,1008.84,VALID,0,VALID,102.81,VALID,0,VALID,24.0837,VALID,155,VALID,0.512109,
2010-06-07, 02:09:04,VALID,1008.84,VALID,0,VALID,102.803,VALID,0,VALID,24.0837,VALID,155,VALID,0.342578,
2010-06-07, 02:10:04,VALID,1008.84,VALID,0,VALID,102.803,VALID,0,VALID,24.0837,VALID,155,VALID,0.513281,
2010-06-07, 02:11:04,VALID,1008.86,VALID,0,VALID,102.803,VALID,0,VALID,24.0643,VALID,155,VALID,0.596875,
2010-06-07, 02:12:04,VALID,1008.87,VALID,0,VALID,102.803,VALID,0,VALID,24.0643,VALID,155,VALID,0.6375,
2010-06-07, 02:13:04,VALID,1008.88,VALID,0,VALID,102.81,VALID,0,VALID,24.0643,VALID,131,VALID,0.753906,
2010-06-07, 02:14:04,VALID,1008.89,VALID,0,VALID,102.833,VALID,0,VALID,24.0643,VALID,148,VALID,0.754297,
2010-06-07, 02:15:04,VALID,1008.88,VALID,0,VALID,102.818,VALID,0,VALID,24.0643,VALID,144,VALID,0.724609,
2010-06-07, 02:16:04,VALID,1008.87,VALID,0,VALID,102.826,VALID,0,VALID,24.0643,VALID,131,VALID,0.799219,
2010-06-07, 02:17:04,VALID,1008.88,VALID,0,VALID,102.826,VALID,0,VALID,24.0448,VALID,131,VALID,0.6125,
2010-06-07, 02:18:04,VALID,1008.87,VALID,0,VALID,102.803,VALID,0.105969,VALID,24.0624,VALID,131,VALID,0.544141,
2010-06-07, 02:19:04,VALID,1008.86,VALID,0,VALID,102.81,VALID,0.105969,VALID,24.0837,VALID,131,VALID,0.585156,
2010-06-07, 02:20:04,VALID,1008.86,VALID,0,VALID,102.803,VALID,0.105969,VALID,24.0624,VALID,131,VALID,0.435937,
2010-06-07, 02:21:04,VALID,1008.84,VALID,0,VALID,102.818,VALID,0.105969,VALID,24.0624,VALID,148,VALID,0.688672,
2010-06-07, 02:22:04,VALID,1008.82,VALID,0,VALID,102.841,VALID,0.105969,VALID,24.0819,VALID,141,VALID,0.749219,
2010-06-07, 02:23:04,VALID,1008.81,VALID,0,VALID,102.841,VALID,0.105969,VALID,24.0819,VALID,141,VALID,0.480469,
2010-06-07, 02:24:04,VALID,1008.79,VALID,0,VALID,102.826,VALID,0,VALID,24.0837,VALID,141,VALID,0.428516,
2010-06-07, 02:25:04,VALID,1008.78,VALID,0,VALID,102.833,VALID,0,VALID,24.0837,VALID,111,VALID,0.631641,
2010-06-07, 02:26:04,VALID,1008.78,VALID,0,VALID,102.818,VALID,0.105969,VALID,24.0819,VALID,111,VALID,0.239844,
2010-06-07, 02:27:04,VALID,1008.74,VALID,0,VALID,102.849,VALID,0.105969,VALID,24.0837,VALID,141,VALID,0.805078,
2010-06-07, 02:28:04,VALID,1008.72,VALID,0,VALID,102.841,VALID,0.105969,VALID,24.0819,VALID,137,VALID,0.566406,
2010-06-07, 02:29:04,VALID,1008.72,VALID,0,VALID,102.833,VALID,0.105969,VALID,24.0819,VALID,134,VALID,0.480469,
2010-06-07, 02:30:04,VALID,1008.68,VALID,0,VALID,102.849,VALID,0.105969,VALID,24.1014,VALID,133,VALID,0.578906,
2010-06-07, 02:31:04,VALID,1008.68,VALID,0,VALID,102.879,VALID,0.105969,VALID,24.1014,VALID,133,VALID,0.531641,
2010-06-07, 02:32:04,VALID,1008.66,VALID,0,VALID,102.887,VALID,0.105969,VALID,24.1014,VALID,133,VALID,0.427344,
2010-06-07, 02:33:04,VALID,1008.68,VALID,0,VALID,102.879,VALID,0,VALID,24.0837,VALID,133,VALID,0.334766,
2010-06-07, 02:34:04,VALID,1008.65,VALID,0,VALID,102.879,VALID,0,VALID,24.1032,VALID,133,VALID,0.350391,
2010-06-07, 02:35:04,VALID,1008.67,VALID,0,VALID,102.871,VALID,0,VALID,24.0837,VALID,133,VALID,0.00195313,
2010-06-07, 02:36:04,VALID,1008.68,VALID,0,VALID,102.887,VALID,0,VALID,24.1032,VALID,133,VALID,0.0445312,
2010-06-07, 02:37:04,VALID,1008.67,VALID,0,VALID,102.887,VALID,0,VALID,24.1032,VALID,133,VALID,0,
2010-06-07, 02:38:04,VALID,1008.68,VALID,0,VALID,102.871,VALID,0.105969,VALID,24.1014,VALID,133,VALID,0,
2010-06-07, 02:39:04,VALID,1008.67,VALID,0,VALID,102.879,VALID,0,VALID,24.1014,VALID,133,VALID,0,
2010-06-07, 02:40:04,VALID,1008.66,VALID,0,VALID,102.894,VALID,0,VALID,24.1227,VALID,133,VALID,0,
2010-06-07, 02:41:04,VALID,1008.64,VALID,0,VALID,102.902,VALID,0,VALID,24.1227,VALID,133,VALID,0,
2010-06-07, 02:42:04,VALID,1008.62,VALID,0,VALID,102.879,VALID,0,VALID,24.1227,VALID,133,VALID,0.225781,
2010-06-07, 02:43:04,VALID,1008.57,VALID,0,VALID,102.887,VALID,0,VALID,24.1032,VALID,133,VALID,0.229297,
2010-06-07, 02:44:04,VALID,1008.56,VALID,0,VALID,102.887,VALID,0,VALID,24.1227,VALID,133,VALID,0,
2010-06-07, 02:45:04,VALID,1008.53,VALID,0,VALID,102.887,VALID,0,VALID,24.1227,VALID,133,VALID,0.0804688,
2010-06-07, 02:46:04,VALID,1008.5,VALID,0,VALID,102.871,VALID,0,VALID,24.1227,VALID,133,VALID,0.373047,
2010-06-07, 02:47:04,VALID,1008.51,VALID,0,VALID,102.887,VALID,0,VALID,24.1014,VALID,133,VALID,0.0359375,
2010-06-07, 02:48:04,VALID,1008.46,VALID,0,VALID,102.887,VALID,0.105969,VALID,24.1209,VALID,133,VALID,0,
2010-06-07, 02:49:04,VALID,1008.43,VALID,0,VALID,102.887,VALID,0.105969,VALID,24.1209,VALID,133,VALID,0,
2010-06-07, 02:50:04,VALID,1008.41,VALID,0,VALID,102.879,VALID,0.105969,VALID,24.1422,VALID,133,VALID,0.224219,
2010-06-07, 02:51:04,VALID,1008.38,VALID,0,VALID,102.879,VALID,0.105969,VALID,24.1404,VALID,133,VALID,0.126953,
2010-06-07, 02:52:04,VALID,1008.37,VALID,0,VALID,102.887,VALID,0,VALID,24.1209,VALID,133,VALID,0,
2010-06-07, 02:53:04,VALID,1008.33,VALID,0,VALID,102.894,VALID,0.105969,VALID,24.1404,VALID,133,VALID,0,
2010-06-07, 02:54:04,VALID,1008.29,VALID,0.5,VALID,102.91,VALID,0.105969,VALID,24.1404,VALID,133,VALID,0,
2010-06-07, 02:55:04,VALID,1008.27,VALID,0,VALID,102.879,VALID,0.105969,VALID,24.1404,VALID,133,VALID,0,
2010-06-07, 02:56:04,VALID,1008.23,VALID,0,VALID,102.864,VALID,0.105969,VALID,24.1404,VALID,133,VALID,0,
2010-06-07, 02:57:04,VALID,1008.18,VALID,0,VALID,102.871,VALID,0.105969,VALID,24.1404,VALID,133,VALID,0,
2010-06-07, 02:58:04,VALID,1008.2,VALID,0,VALID,102.871,VALID,0.105969,VALID,24.1404,VALID,133,VALID,0,
2010-06-07, 02:59:04,VALID,1008.17,VALID,0,VALID,102.887,VALID,0.105969,VALID,24.1599,VALID,133,VALID,0,
2010-06-07, 03:00:04,VALID,1008.16,VALID,0,VALID,102.894,VALID,0.105969,VALID,24.1404,VALID,133,VALID,0,
2010-06-07, 03:01:04,VALID,1008.14,VALID,0,VALID,102.871,VALID,0.105969,VALID,24.1404,VALID,133,VALID,0,
2010-06-07, 03:02:04,VALID,1008.13,VALID,0,VALID,102.887,VALID,0.105969,VALID,24.1404,VALID,133,VALID,0,
2010-06-07, 03:03:04,VALID,1008.12,VALID,0,VALID,102.894,VALID,0,VALID,24.1227,VALID,133,VALID,0,
2010-06-07, 03:04:04,VALID,1008.16,VALID,0,VALID,102.887,VALID,0,VALID,24.1227,VALID,133,VALID,0,
2010-06-07, 03:05:04,VALID,1008.15,VALID,0,VALID,102.894,VALID,0,VALID,24.1032,VALID,133,VALID,0,
2010-06-07, 03:06:04,VALID,1008.15,VALID,0,VALID,102.879,VALID,0,VALID,24.1227,VALID,133,VALID,0,
2010-06-07, 03:07:04,VALID,1008.17,VALID,0,VALID,102.879,VALID,0,VALID,24.1245,VALID,133,VALID,0,
2010-06-07, 03:08:04,VALID,1008.16,VALID,0,VALID,102.917,VALID,0,VALID,24.1245,VALID,133,VALID,0,
2010-06-07, 03:09:04,VALID,1008.18,VALID,0,VALID,102.894,VALID,0,VALID,24.1051,VALID,133,VALID,0.0550781,
2010-06-07, 03:10:04,VALID,1008.12,VALID,0,VALID,102.887,VALID,0,VALID,24.1245,VALID,133,VALID,0.466406,
2010-06-07, 03:11:04,VALID,1008.1,VALID,0,VALID,102.894,VALID,0,VALID,24.0837,VALID,133,VALID,0.635156,
2010-06-07, 03:12:04,VALID,1008.1,VALID,0,VALID,102.91,VALID,0,VALID,24.0643,VALID,133,VALID,0.622266,
2010-06-07, 03:13:04,VALID,1008.07,VALID,0,VALID,102.902,VALID,0,VALID,24.0837,VALID,133,VALID,0.518359,
2010-06-07, 03:14:04,VALID,1008.12,VALID,0,VALID,102.879,VALID,0,VALID,24.0643,VALID,133,VALID,0.312109,
2010-06-07, 03:15:04,VALID,1008.12,VALID,0,VALID,102.864,VALID,0,VALID,24.0837,VALID,150,VALID,0.290234,
2010-06-07, 03:16:04,VALID,1008.11,VALID,0,VALID,102.887,VALID,0,VALID,24.1227,VALID,152,VALID,0.357422,
2010-06-07, 03:17:04,VALID,1008.13,VALID,0,VALID,102.871,VALID,0,VALID,24.1032,VALID,152,VALID,0.246484,
2010-06-07, 03:18:04,VALID,1008.15,VALID,0,VALID,102.864,VALID,0.105969,VALID,24.1014,VALID,152,VALID,0,
2010-06-07, 03:19:04,VALID,1008.15,VALID,0,VALID,102.879,VALID,0.105969,VALID,24.1014,VALID,152,VALID,0,
2010-06-07, 03:20:04,VALID,1008.15,VALID,0,VALID,102.856,VALID,0.105969,VALID,24.1209,VALID,152,VALID,0.264453,
2010-06-07, 03:21:04,VALID,1008.18,VALID,0,VALID,102.864,VALID,0.105969,VALID,24.1227,VALID,150,VALID,0.716016,
2010-06-07, 03:22:04,VALID,1008.19,VALID,0,VALID,102.849,VALID,0.105969,VALID,24.1014,VALID,150,VALID,0.475781,
2010-06-07, 03:23:04,VALID,1008.2,VALID,0,VALID,102.864,VALID,0.105969,VALID,24.1227,VALID,150,VALID,0.480469,
2010-06-07, 03:24:04,VALID,1008.21,VALID,0,VALID,102.887,VALID,0.105969,VALID,24.1014,VALID,150,VALID,0.645703,
2010-06-07, 03:25:04,VALID,1008.21,VALID,0,VALID,102.856,VALID,0.105969,VALID,24.1014,VALID,150,VALID,0.733984,
2010-06-07, 03:26:04,VALID,1008.2,VALID,0,VALID,102.887,VALID,0.105969,VALID,24.0819,VALID,147,VALID,0.625,
2010-06-07, 03:27:04,VALID,1008.21,VALID,0,VALID,102.871,VALID,0.105969,VALID,24.0819,VALID,153,VALID,0.559375,
2010-06-07, 03:28:04,VALID,1008.16,VALID,0,VALID,102.902,VALID,0,VALID,24.0819,VALID,153,VALID,0.342969,
2010-06-07, 03:29:04,VALID,1008.21,VALID,0,VALID,102.902,VALID,0,VALID,24.0624,VALID,153,VALID,0.321484,
2010-06-07, 03:30:04,VALID,1008.21,VALID,0,VALID,102.879,VALID,0,VALID,24.0837,VALID,153,VALID,0.296875,
2010-06-07, 03:31:04,VALID,1008.24,VALID,0,VALID,102.887,VALID,0,VALID,24.0429,VALID,153,VALID,0.43125,
2010-06-07, 03:32:04,VALID,1008.24,VALID,0,VALID,102.894,VALID,0,VALID,24.0643,VALID,164,VALID,0.691797,
2010-06-07, 03:33:04,VALID,1008.26,VALID,0,VALID,102.871,VALID,0,VALID,24.0643,VALID,168,VALID,0.444141,
2010-06-07, 03:34:04,VALID,1008.3,VALID,0,VALID,102.871,VALID,0,VALID,24.0448,VALID,168,VALID,0.430859,
2010-06-07, 03:35:04,VALID,1008.28,VALID,0,VALID,102.879,VALID,0,VALID,24.0643,VALID,168,VALID,0.315234,
2010-06-07, 03:36:04,VALID,1008.3,VALID,0,VALID,102.887,VALID,0,VALID,24.0448,VALID,168,VALID,0.266797,
2010-06-07, 03:37:04,VALID,1008.33,VALID,0,VALID,102.887,VALID,0,VALID,24.0253,VALID,168,VALID,0.130859,
2010-06-07, 03:38:04,VALID,1008.32,VALID,0,VALID,102.91,VALID,0,VALID,24.0253,VALID,168,VALID,0,
2010-06-07, 03:39:04,VALID,1008.32,VALID,0,VALID,102.902,VALID,0,VALID,24.0253,VALID,168,VALID,0,
2010-06-07, 03:40:04,VALID,1008.3,VALID,0,VALID,102.902,VALID,0,VALID,24.0253,VALID,168,VALID,0.299609,
2010-06-07, 03:41:04,VALID,1008.33,VALID,0,VALID,102.879,VALID,0,VALID,24.0253,VALID,168,VALID,0.214453,
2010-06-07, 03:42:04,VALID,1008.31,VALID,0,VALID,102.887,VALID,0,VALID,24.0253,VALID,168,VALID,0.0945313,